Chrysoupoli Airport, Greece

5:21 AM EEST on August 31, 2016 (GMT +0300)
Megas Alexandros

Weather History for LGKV - November, 2012

Change the Weather History Date:

Friday, November 23, 2012

  Actual Average Record
Temperature  
Mean Temperature 48 °F -  
Max Temperature 53 °F 55 °F 71 °F (2010)
Min Temperature 42 °F 42 °F 32 °F (2001)
Degree Days  
Heating Degree Days 18    
Moisture  
Dew Point 40 °F    
Average Humidity 69    
Maximum Humidity 87    
Minimum Humidity 54    
Precipitation  
Precipitation 0.00 in - - ()
Sea Level Pressure  
Sea Level Pressure 30.23 in    
Wind  
Wind Speed 5 mph ()    
Max Wind Speed 10 mph    
Max Gust Speed -    
Visibility 6.2 miles    
Events      
Averages and records for this station are not official NWS values.
T = Trace of Precipitation, MM = Missing Value Source: Averaged Metar Reports

Daily Weather History Graph

Daily Weather History Graph

Search for Another Location

Airport or City:

Trip Planner

Search our weather history database for the weather conditions in past years. The results will help you decide how hot, cold, wet, or windy it might be!

Date:

Astronomy

Nov. 23, 2012 Rise Set
Actual Time 7:18 AM EET 4:57 PM EET
Civil Twilight 6:48 AM EET 5:27 PM EET
Nautical Twilight 6:14 AM EET 6:01 PM EET
Astronomical Twilight 5:41 AM EET 6:33 PM EET
Moon 2:04 PM EET (11/23) 2:16 AM EET (11/23)
Length of Visible Light 10h 39m
Length of Day
9h 39m
Waxing Gibbous, 77% of the Moon is Illuminated
Nov 23
Waxing Gibbous
Nov 28
Full
Dec 6
Last Quarter
Dec 13
New
Dec 20
First Quarter

Hourly Weather History & Observations

Time (EET) Temp. Windchill Dew Point Humidity Pressure Visibility Wind Dir Wind Speed Gust Speed Precip Events Conditions
5:20 AM 42.8 °F - 39.2 °F 87% 30.24 in 6.2 mi Calm Calm - N/A   Mostly Cloudy
5:50 AM 42.8 °F 40.1 °F 39.2 °F 87% 30.24 in 6.2 mi NNE 4.6 mph - N/A   Mostly Cloudy
6:20 AM 42.8 °F 39.3 °F 39.2 °F 87% 30.24 in 6.2 mi ENE 5.8 mph - N/A   Mostly Cloudy
6:50 AM 44.6 °F 41.4 °F 39.2 °F 81% 30.24 in 6.2 mi ENE 5.8 mph - N/A   Mostly Cloudy
7:20 AM 44.6 °F 40.7 °F 39.2 °F 81% 30.24 in 6.2 mi NE 6.9 mph - N/A   Mostly Cloudy
7:50 AM 44.6 °F 42.2 °F 41.0 °F 87% 30.24 in 6.2 mi NNE 4.6 mph - N/A   Mostly Cloudy
8:20 AM 44.6 °F 41.4 °F 41.0 °F 87% 30.24 in 6.2 mi ENE 5.8 mph - N/A   Mostly Cloudy
8:50 AM 46.4 °F 44.3 °F 41.0 °F 81% 30.27 in 6.2 mi NE 4.6 mph - N/A   Mostly Cloudy
9:20 AM 46.4 °F 42.9 °F 41.0 °F 81% 30.27 in 6.2 mi NNE 6.9 mph - N/A   Mostly Cloudy
9:50 AM 48.2 °F - 41.0 °F 76% 30.27 in 6.2 mi NE 5.8 mph - N/A   Mostly Cloudy
10:20 AM 48.2 °F - 41.0 °F 76% 30.27 in 6.2 mi ENE 10.4 mph - N/A   Mostly Cloudy
10:50 AM 50.0 °F - 37.4 °F 62% 30.27 in 6.2 mi East 10.4 mph - N/A   Mostly Cloudy
11:20 AM 51.8 °F - 37.4 °F 58% 30.27 in 6.2 mi East 10.4 mph - N/A   Mostly Cloudy
11:50 AM 51.8 °F - 37.4 °F 58% 30.27 in 6.2 mi East 8.1 mph - N/A   Mostly Cloudy
12:20 PM 51.8 °F - 37.4 °F 58% 30.24 in 6.2 mi East 8.1 mph - N/A   Mostly Cloudy
12:50 PM 53.6 °F - 37.4 °F 54% 30.24 in 6.2 mi ENE 6.9 mph - N/A   Mostly Cloudy
1:20 PM 53.6 °F - 37.4 °F 54% 30.24 in 6.2 mi East 5.8 mph - N/A   Mostly Cloudy
1:50 PM 53.6 °F - 39.2 °F 58% 30.21 in 6.2 mi East 6.9 mph - N/A   Mostly Cloudy
2:20 PM 53.6 °F - 39.2 °F 58% 30.21 in 6.2 mi ESE 5.8 mph - N/A   Mostly Cloudy
2:50 PM 53.6 °F - 39.2 °F 58% 30.21 in 6.2 mi East 6.9 mph - N/A   Mostly Cloudy
3:20 PM 53.6 °F - 39.2 °F 58% 30.21 in 6.2 mi East 6.9 mph - N/A   Mostly Cloudy
3:50 PM 53.6 °F - 39.2 °F 58% 30.21 in 6.2 mi ENE 5.8 mph - N/A   Mostly Cloudy
4:20 PM 53.6 °F - 39.2 °F 58% 30.21 in 6.2 mi ENE 4.6 mph - N/A   Mostly Cloudy
4:50 PM 53.6 °F - 42.8 °F 67% 30.21 in 6.2 mi Calm Calm - N/A   Mostly Cloudy
5:20 PM 53.6 °F - 42.8 °F 67% 30.21 in 6.2 mi Calm Calm - N/A   Mostly Cloudy
5:50 PM 51.8 °F - 42.8 °F 71% 30.21 in 6.2 mi NNE 4.6 mph - N/A   Mostly Cloudy
6:20 PM 51.8 °F - 42.8 °F 71% 30.21 in 6.2 mi NE 4.6 mph - N/A   Mostly Cloudy
6:50 PM 51.8 °F - 41.0 °F 67% 30.21 in 6.2 mi NE 4.6 mph - N/A   Mostly Cloudy
7:20 PM 51.8 °F - 41.0 °F 67% 30.21 in 6.2 mi NE 5.8 mph - N/A   Mostly Cloudy
7:50 PM 51.8 °F - 41.0 °F 67% 30.21 in 6.2 mi ENE 5.8 mph - N/A   Mostly Cloudy